Tracking 29892 objects as of 21-Nov-2024
HD Live streaming from Space Station
objects crossing your sky now

ONEWEB-0387

Track ONEWEB-0387 now!
10-day predictions
ONEWEB-0387 is classified as:


NORAD ID: 49313
Int'l Code: 2021-090AL
Perigee: 1,187.5 km
Apogee: 1,190.3 km
Inclination: 87.9 °
Period: 109.0 minutes
Semi major axis: 7559 km
RCS: Unknown
Launch date: October 14, 2021
Source: United Kingdom (UK)
Launch site: VOSTOCHNY COSMODROME (VOSTO)
Your satellite tracking list
Your tracking list is empty




NASA's NSSDC Master Catalog

Two Line Element Set (TLE):
1 49313U 21090AL  24325.58471195  .00000129  00000-0  28460-3 0  9993
2 49313  87.9283  28.6207 0001887 111.8744 248.2590 13.20773291154100
Source of the keplerian elements: AFSPC